CAPE
872 766 555 887 961 1015 1070 1310 1854 2216 1898 2217 2611 2510 2486 2212 2093 2080 2117 2432 2599 2422
937 916 625 831 740 783 1386 1243 1613 1954 2204 2013 2082 2383 2673 3330 2779 2451 2180 2110 2405 2725
685 897 889 1055 1036 847 1332 1154 968 1271 1922 2123 2136 2273 2447 2717 2321 2489 2163 2041 2208 2632
478 564 860 787 1154 1112 1259 1462 1462 1243 1264 1339 1734 2155 2471 2579 2263 2380 2174 2467 2098 2083
565 406 354 605 972 1276 1353 1585 1869 1881 1782 2029 1895 1953 2276 2359 1845 2258 2284 2325 2146 1884
600 591 431 414 837 1267 1410 1551 1508 1671 2069 2334 2205 1964 1733 1880 1856 2039 2176 2278 2225 2075
822 713 636 493 711 1141 1495 1614 1763 1935 2070 2184 2157 2078 1685 1497 1370 1404 1825 2270 2302 2216
1173 981 898 976 837 1061 1342 1418 1591 1634 1802 1766 1481 1379 2033 1821 1591 1937 1956 2096 2340 2138
1276 1140 1106 1031 1062 1257 1230 1476 1668 1582 1517 1570 1078 449 740 1376 1925 2100 2118 2153 2158 2175
1114 1207 1252 1132 1061 1171 1457 1396 1561 1507 1635 1588 1695 834 510 179 1685 2343 2000 2064 2054 1915
1431 1323 1462 1319 1336 1470 1400 1536 1568 1586 1972 1943 2080 1256 517 121 1477 1782 1570 1946 2190 2244
1685 1637 1606 1640 1782 1791 1751 1746 1878 1818 1926 2208 2239 693 59 9 1343 1716 2078 2028 2148 2016
1786 1858 1773 2001 1897 2093 1858 1849 1646 1773 2079 1710 1768 455 2 0 1004 1461 1526 1907 2042 654
1774 1819 1906 2161 2085 1792 1991 2086 2092 2012 2271 2215 1361 1172 0 1 1098 1173 1214 1265 1600 1578
CIN
-19 -20 -40 -34 -17 -10 -9 -10 -15 -14 -19 -14 -10 -9 -12 -4 -2 -7 -4 -5 -5 -4
-25 -20 -37 -52 -46 -27 -34 -30 -34 -25 -14 -21 -13 -12 -4 -3 -3 -6 -3 -9 -8 -6
-61 -40 -40 -34 -48 -49 -38 -62 -81 -55 -30 -20 -16 -16 -19 -11 -8 -9 -2 -1 -6 -3
-92 -71 -48 -55 -45 -50 -36 -47 -56 -62 -57 -43 -24 -20 -19 -17 -12 -8 -2 -4 -11 -4
-105 -92 -83 -71 -59 -46 -46 -36 -35 -39 -44 -31 -30 -30 -25 -11 -9 -11 -6 -4 -3 -2
-126 -95 -88 -87 -55 -42 -49 -36 -37 -36 -25 -24 -24 -37 -47 -41 -34 -18 -8 -7 -3 -4
-134 -127 -102 -88 -58 -41 -40 -38 -27 -29 -19 -17 -21 -25 -36 -38 -38 -33 -12 -9 -5 -3
-149 -132 -111 -87 -81 -49 -30 -43 -37 -33 -27 -25 -20 -14 -21 -27 -24 -12 -7 -4 -3 -1
-176 -154 -137 -122 -100 -59 -55 -36 -27 -33 -39 -28 -25 -63 -85 -45 -10 -8 -9 -1 -0 -1
-182 -170 -148 -138 -116 -98 -60 -48 -35 -41 -31 -37 -32 -89 -166 -255 -16 -7 -2 -0 -1 -0
-166 -166 -143 -130 -107 -87 -76 -60 -43 -37 -20 -32 -27 -108 -203 -308 -57 -27 -19 -2 -1 -2
-132 -135 -137 -135 -111 -93 -61 -56 -52 -38 -24 -17 -27 -169 -300 -226 -58 -28 -23 -21 -9 -8
-116 -111 -114 -120 -128 -98 -95 -84 -86 -37 -17 -52 -65 -206 -142 -0 -64 -51 -36 -24 -8 -98
-105 -93 -115 -87 -78 -106 -100 -59 -53 -60 -31 -24 -78 -78 -0 -0 -52 -50 -37 -25 -0 -0
Wind_Speed
13 8 7 9 6 6 7 6 6 7 7 7 6 5 4 3 3 4 3 4 4 3
13 12 9 8 8 6 4 5 6 6 7 8 7 6 6 4 5 4 4 2 3 3
14 13 11 9 9 9 6 5 5 6 7 7 7 7 6 5 5 4 4 3 4 3
14 14 13 11 10 9 8 7 7 8 7 7 7 8 7 9 7 6 5 5 4 4
14 13 14 14 13 11 10 9 8 8 9 8 8 8 8 9 7 7 7 6 6 5
15 15 15 15 13 12 11 10 10 9 9 10 9 9 9 8 7 8 8 7 7 6
16 16 15 14 13 13 13 12 12 11 10 9 8 9 9 8 9 8 8 8 8 7
14 14 13 14 13 13 13 13 12 12 11 11 10 9 10 10 10 10 9 9 9 9
12 13 14 13 13 13 13 13 13 14 13 13 10 10 11 10 9 10 10 10 10 10
12 12 13 13 13 14 14 13 14 15 14 13 14 12 14 14 10 9 10 11 10 10
13 13 13 13 14 13 12 13 13 13 14 13 12 13 15 15 12 11 13 12 12 11
15 14 14 14 14 12 12 12 12 12 13 14 12 12 12 11 10 11 12 12 11 10
14 15 15 14 14 11 13 13 10 12 13 14 13 13 12 10 6 8 8 9 10 8
12 14 15 13 11 12 12 10 12 13 12 14 14 10 9 11 9 7 6 6 7 6
Wind_Direction
203 205 200 191 179 192 200 200 182 193 200 214 221 225 223 226 235 230 224 224 238 263
202 209 201 196 206 214 215 204 194 194 212 220 221 231 235 224 221 225 239 237 263 261
210 210 209 206 203 207 201 198 183 197 206 221 230 230 230 237 229 227 238 244 255 254
213 212 212 215 215 211 212 204 200 191 192 217 233 234 227 230 231 230 235 227 256 260
207 213 217 218 215 214 216 208 205 195 187 204 221 232 228 233 220 230 243 241 227 250
207 209 220 222 220 218 213 216 206 215 219 205 209 216 225 228 230 231 229 237 234 229
209 209 209 218 220 224 219 218 216 211 221 225 214 214 222 228 235 240 235 232 235 240
208 209 211 207 212 223 232 228 230 224 222 232 238 227 213 218 221 233 239 238 236 236
196 203 209 210 208 214 226 231 233 236 233 233 238 222 205 216 225 229 234 243 245 250
200 198 207 207 207 212 220 226 230 234 234 232 230 209 205 208 232 230 242 247 247 249
205 205 203 203 210 213 215 219 230 233 230 230 227 202 207 201 223 230 234 243 244 247
212 215 208 207 212 211 210 213 219 230 231 227 232 204 214 195 211 223 225 224 237 235
215 216 217 217 209 207 208 215 206 222 228 225 223 201 192 191 216 216 223 215 222 198
229 227 223 219 215 208 206 223 214 216 224 229 227 216 167 205 219 216 216 207 214 220